Total_Precipitation_Accumulation
0.43 0.34 0.41 0.46 0.39 0.42 0.58 0.57 0.46 0.22 0.15 0.14 0.13 0.13 0.11 0.10 0.08 0.07 0.08 0.08 0.08 0.11 0.14 0.20 0.28 0.36 0.47 0.51 0.45 0.43 0.48 0.57 0.68 0.73 0.75 0.79 0.88 0.98 1.04 1.10 1.13 1.12 1.14 1.11
0.42 0.27 0.32 0.35 0.27 0.29 0.34 0.31 0.27 0.18 0.17 0.13 0.11 0.11 0.10 0.10 0.10 0.08 0.08 0.08 0.08 0.10 0.11 0.16 0.27 0.39 0.48 0.55 0.55 0.55 0.63 0.68 0.75 0.80 0.80 0.81 0.87 1.00 1.08 1.12 1.19 1.21 1.18 1.14
0.60 0.34 0.51 0.51 0.28 0.26 0.28 0.24 0.24 0.24 0.19 0.13 0.12 0.12 0.13 0.13 0.13 0.12 0.09 0.08 0.08 0.10 0.11 0.16 0.32 0.44 0.47 0.54 0.60 0.65 0.71 0.73 0.71 0.75 0.81 0.79 0.79 0.90 1.02 1.04 1.01 1.02 1.04 1.04
0.82 0.62 0.90 0.45 0.22 0.20 0.22 0.25 0.27 0.27 0.21 0.15 0.13 0.14 0.16 0.17 0.16 0.14 0.11 0.12 0.12 0.12 0.12 0.16 0.26 0.33 0.35 0.45 0.55 0.61 0.64 0.71 0.73 0.72 0.76 0.80 0.78 0.75 0.77 0.84 0.91 0.88 0.82 0.80
1.08 0.82 0.48 0.21 0.19 0.23 0.25 0.31 0.32 0.28 0.24 0.19 0.15 0.12 0.15 0.17 0.16 0.14 0.12 0.11 0.11 0.11 0.13 0.16 0.20 0.25 0.28 0.34 0.42 0.50 0.55 0.57 0.62 0.64 0.67 0.70 0.75 0.70 0.65 0.67 0.73 0.77 0.75 0.70
1.21 0.90 0.44 0.27 0.19 0.18 0.21 0.34 0.30 0.26 0.25 0.24 0.24 0.36 0.31 0.22 0.16 0.13 0.10 0.09 0.08 0.08 0.09 0.12 0.17 0.22 0.26 0.30 0.31 0.37 0.41 0.41 0.41 0.44 0.49 0.50 0.52 0.55 0.54 0.57 0.60 0.61 0.66 0.68
1.03 0.80 0.33 0.18 0.13 0.16 0.38 0.49 0.32 0.27 0.26 0.27 0.35 0.45 0.34 0.23 0.19 0.15 0.11 0.08 0.06 0.07 0.09 0.13 0.17 0.20 0.23 0.26 0.26 0.30 0.31 0.28 0.29 0.31 0.34 0.36 0.39 0.42 0.44 0.46 0.50 0.55 0.58 0.62
0.79 0.90 0.45 0.19 0.19 0.35 0.51 0.33 0.27 0.26 0.24 0.26 0.24 0.20 0.19 0.18 0.16 0.14 0.12 0.10 0.09 0.09 0.11 0.14 0.17 0.18 0.20 0.23 0.24 0.26 0.29 0.25 0.24 0.27 0.31 0.33 0.35 0.38 0.40 0.43 0.48 0.51 0.55 0.61
0.59 0.51 0.31 0.25 0.29 0.30 0.26 0.24 0.22 0.23 0.22 0.24 0.22 0.18 0.16 0.15 0.13 0.12 0.11 0.12 0.12 0.13 0.13 0.13 0.13 0.15 0.17 0.18 0.19 0.22 0.25 0.26 0.25 0.26 0.29 0.34 0.39 0.41 0.42 0.43 0.49 0.53 0.55 0.59
0.35 0.26 0.23 0.21 0.20 0.19 0.17 0.17 0.17 0.18 0.21 0.22 0.21 0.16 0.13 0.11 0.10 0.10 0.09 0.11 0.13 0.13 0.12 0.12 0.12 0.12 0.13 0.13 0.15 0.20 0.24 0.27 0.27 0.27 0.30 0.34 0.39 0.43 0.47 0.52 0.60 0.64 0.63 0.62
0.24 0.16 0.15 0.16 0.15 0.14 0.12 0.10 0.10 0.09 0.11 0.15 0.15 0.14 0.13 0.11 0.10 0.11 0.12 0.12 0.12 0.12 0.12 0.11 0.11 0.12 0.12 0.12 0.14 0.18 0.21 0.26 0.29 0.30 0.32 0.34 0.36 0.39 0.46 0.50 0.67 0.85 0.77 0.74
0.20 0.13 0.12 0.12 0.10 0.10 0.10 0.10 0.11 0.11 0.09 0.08 0.10 0.11 0.12 0.12 0.13 0.14 0.14 0.14 0.13 0.11 0.09 0.08 0.09 0.11 0.11 0.11 0.13 0.17 0.21 0.24 0.28 0.32 0.34 0.34 0.37 0.40 0.42 0.44 0.51 0.55 0.59 0.70
0.12 0.09 0.08 0.08 0.07 0.07 0.09 0.10 0.11 0.11 0.10 0.08 0.08 0.10 0.11 0.11 0.12 0.12 0.13 0.13 0.12 0.10 0.09 0.09 0.09 0.10 0.12 0.12 0.13 0.17 0.23 0.27 0.30 0.30 0.34 0.38 0.41 0.46 0.45 0.42 0.43 0.44 0.47 0.55
0.08 0.08 0.10 0.08 0.07 0.08 0.09 0.09 0.09 0.09 0.08 0.08 0.07 0.08 0.09 0.10 0.10 0.11 0.11 0.11 0.09 0.08 0.07 0.08 0.09 0.10 0.12 0.12 0.13 0.16 0.22 0.29 0.33 0.32 0.34 0.38 0.41 0.45 0.48 0.50 0.49 0.44 0.44 0.51
0.08 0.09 0.09 0.08 0.08 0.08 0.07 0.07 0.08 0.08 0.06 0.05 0.05 0.07 0.09 0.10 0.11 0.12 0.11 0.10 0.08 0.07 0.07 0.08 0.09 0.10 0.11 0.13 0.15 0.18 0.22 0.29 0.36 0.38 0.39 0.41 0.41 0.43 0.46 0.46 0.46 0.45 0.46 0.55
0.09 0.09 0.08 0.08 0.07 0.07 0.07 0.08 0.09 0.08 0.06 0.05 0.06 0.07 0.09 0.10 0.11 0.11 0.09 0.08 0.07 0.07 0.08 0.09 0.11 0.11 0.12 0.14 0.18 0.20 0.23 0.33 0.42 0.45 0.44 0.46 0.45 0.46 0.48 0.49 0.47 0.47 0.52 0.59
0.12 0.10 0.08 0.07 0.06 0.08 0.08 0.09 0.10 0.10 0.08 0.06 0.07 0.09 0.10 0.10 0.10 0.09 0.09 0.08 0.07 0.07 0.08 0.09 0.12 0.13 0.14 0.17 0.21 0.23 0.27 0.32 0.41 0.46 0.46 0.48 0.52 0.52 0.52 0.55 0.55 0.53 0.51 0.55
0.13 0.13 0.11 0.10 0.10 0.10 0.10 0.09 0.09 0.10 0.09 0.08 0.09 0.11 0.12 0.12 0.11 0.11 0.10 0.09 0.08 0.08 0.08 0.09 0.13 0.16 0.16 0.20 0.24 0.26 0.31 0.36 0.42 0.49 0.50 0.52 0.57 0.58 0.57 0.57 0.56 0.56 0.52 0.55
0.10 0.11 0.11 0.11 0.13 0.14 0.12 0.10 0.09 0.10 0.11 0.11 0.12 0.13 0.13 0.14 0.13 0.13 0.11 0.10 0.09 0.10 0.10 0.12 0.16 0.16 0.18 0.22 0.31 0.34 0.39 0.44 0.48 0.49 0.49 0.56 0.59 0.56 0.58 0.59 0.60 0.59 0.57 0.58
0.11 0.11 0.11 0.13 0.14 0.15 0.14 0.12 0.11 0.12 0.12 0.13 0.14 0.15 0.16 0.16 0.16 0.16 0.14 0.14 0.13 0.13 0.12 0.14 0.16 0.17 0.20 0.27 0.39 0.44 0.47 0.49 0.53 0.53 0.53 0.56 0.60 0.61 0.61 0.63 0.65 0.64 0.62 0.62
0.14 0.14 0.14 0.14 0.14 0.14 0.14 0.15 0.14 0.14 0.14 0.15 0.16 0.19 0.19 0.19 0.19 0.18 0.18 0.17 0.16 0.17 0.16 0.16 0.17 0.23 0.31 0.41 0.46 0.45 0.47 0.53 0.58 0.61 0.62 0.63 0.65 0.65 0.65 0.67 0.69 0.71 0.71 0.69
0.16 0.16 0.17 0.17 0.15 0.14 0.14 0.14 0.15 0.16 0.16 0.16 0.18 0.20 0.21 0.22 0.21 0.20 0.19 0.19 0.19 0.23 0.23 0.20 0.23 0.35 0.42 0.47 0.44 0.45 0.48 0.54 0.61 0.65 0.68 0.67 0.72 0.74 0.72 0.72 0.77 0.77 0.77 0.76
0.20 0.20 0.19 0.19 0.17 0.16 0.14 0.14 0.14 0.16 0.18 0.19 0.21 0.22 0.23 0.24 0.24 0.24 0.24 0.22 0.22 0.27 0.27 0.26 0.33 0.41 0.46 0.45 0.42 0.45 0.50 0.57 0.64 0.71 0.74 0.75 0.76 0.80 0.82 0.81 0.82 0.82 0.82 0.80
0.22 0.20 0.19 0.19 0.18 0.17 0.16 0.16 0.16 0.17 0.17 0.18 0.20 0.22 0.24 0.24 0.23 0.23 0.25 0.27 0.29 0.31 0.31 0.35 0.40 0.44 0.46 0.45 0.46 0.51 0.58 0.66 0.74 0.80 0.82 0.83 0.82 0.84 0.87 0.90 0.90 0.86 0.84 0.82
0.25 0.24 0.21 0.20 0.20 0.20 0.19 0.19 0.17 0.17 0.17 0.18 0.19 0.21 0.23 0.26 0.29 0.28 0.29 0.32 0.35 0.36 0.37 0.39 0.43 0.46 0.46 0.48 0.55 0.62 0.70 0.78 0.89 0.95 0.95 0.92 0.89 0.89 0.90 0.93 0.94 0.92 0.88 0.85
0.29 0.28 0.27 0.25 0.26 0.25 0.24 0.23 0.22 0.21 0.21 0.22 0.22 0.24 0.26 0.29 0.32 0.32 0.33 0.36 0.39 0.40 0.41 0.43 0.46 0.50 0.54 0.59 0.65 0.70 0.74 0.77 0.83 0.90 0.91 0.92 0.91 0.92 0.93 0.96 0.95 0.93 0.90 0.87
0.31 0.29 0.27 0.26 0.27 0.28 0.28 0.29 0.30 0.29 0.29 0.31 0.32 0.31 0.32 0.34 0.36 0.36 0.37 0.40 0.43 0.44 0.45 0.48 0.51 0.55 0.60 0.67 0.71 0.74 0.77 0.79 0.84 0.92 0.96 0.95 0.94 0.96 0.97 0.97 0.97 0.94 0.91 0.88